Location: Roanoke
(37.2710°N, 79.9420°W)
Time: 03:53:39
(UTC-05:00)

Courier 1B Rocket - Pass Details

Date: 21 November 2019
Orbit: 920 x 1202 km, 28.2° (Epoch: 10 December)

Event Time Altitude Azimuth Distance (km) Brightness Sun altitude
Rises 16:28:21 0° 256° (WSW) 3,809 9.9 5.8°
Reaches altitude 10° 16:31:09 10° 250° (WSW) 2,898 9.8 5.3°
Maximum altitude 16:37:46 41° 182° (S) 1,562 6.5 4.2°
Drops below altitude 10° 16:44:48 10° 115° (ESE) 3,073 7.3 2.9°
Sets 16:47:51 0° 108° (ESE) 4,061 7.8 2.4°
